Skip Page Navigation
NASA JPL Caltech
NASA Logo - Jet Propulsion Laboratory + View the NASA Portal
+ Center for Near-Earth Object Studies
JPL Home Earth Solar System Stars & Galaxies Technology
JPL Solar System Dynamics
BODIES ORBITS EPHEMERIDES TOOLS PHYSICAL DATA DISCOVERY FAQ SITE MAP
IMPORTANT: The SSD Announcement email list is now available. Major changes are coming in the near future, including possible hostname and/or URL changes. To be notified of such changes, subscribe to this email list.

Please visit this page for more details.


JPL Small-Body Database Browser
Search: [ help ]  
423895 (2006 SX68)
Classification: Main-belt Asteroid          SPK-ID: 2423895
Ephemeris | Orbit Diagram | Orbital Elements | Mission Design | Physical Parameters | Discovery Circumstances | Close-Approach Data ]

[ show orbit diagram ]
Orbital Elements at Epoch 2459000.5 (2020-May-31.0) TDB
Reference: JPL 13 (heliocentric ecliptic J2000)
 Element Value Uncertainty (1-sigma)   Units 
e .01888511776257681 7.853e-08  
a 3.055287700671616 5.2978e-08 au
q 2.99758823264588 2.4393e-07 au
i 5.078556205189769 9.3557e-06 deg
node 177.6637493018003 8.3089e-05 deg
peri 162.2975024664761 0.00024217 deg
M 224.4811084042703 0.000226 deg
tp 2459734.800687267114
(2022-Jun-04.30068727)
0.0012238 TDB
period 1950.637614457075
5.34
5.0736e-05
1.389e-07
d
yr
n .1845550384817118 4.8002e-09 deg/d
Q 3.112987168697352 5.3979e-08 au
  Orbit Determination Parameters
   # obs. used (total)      119  
   data-arc span      4517 days (12.37 yr)  
   first obs. used      2006-09-15  
   last obs. used      2019-01-27  
   planetary ephem.      DE431  
   SB-pert. ephem.      SB431-N16  
   condition code      0  
   norm. resid. RMS      .60251  
   source      ORB  
   producer      Otto Matic  
   solution date      2019-Jul-14 15:31:30  

Additional Information
 Earth MOID = 1.98898 au 
 Jupiter MOID = 1.94625 au 
 T_jup = 3.229 
[ show covariance matrix ]

Ephemeris | Orbit Diagram | Orbital Elements | Mission Design | Physical Parameters | Discovery Circumstances | Close-Approach Data ]

Physical Parameter Table
Parameter Symbol Value Units Sigma Reference Notes
absolute magnitude H 16.2   n/a MPO427997  

423895 (2006 SX68)          Discovered 2006-Sep-15 by Spacewatch at Kitt Peak
Reference: Last Updated: 2015-02-04

[ show close-approach data ]
Ephemeris | Orbit Diagram | Orbital Elements | Mission Design | Physical Parameters | Discovery Circumstances | Close-Approach Data ]
ABOUT SSD CREDITS/AWARDS PRIVACY/COPYRIGHT GLOSSARY LINKS
FirstGov 2020-Feb-19 01:34 UT
(server date/time)  
NASA Home Page
Site Manager:   Ryan S. Park
Webmaster  Alan B. Chamberlin